When you browse on this site, cookies collect data to enhance your experience and personalize the content and advertising you see.
Visit our Privacy Policy to learn more. By continuing to use the site, you agree to this use of cookies and data.
  • Em Portugal
  • Lista de países
  • Para 7 dias
  • Temperatura da água
  • Mapas de satélite
  • Mapa do tempo
  • Widgets de tempo
  • user-avatar
    Iniciar Sessão

    Previsão horária em Corcha

    Hoje, 22 Maio, Quarta-feira

    Tempo Temperatura Precipitação Vento Pressão Humidade
    00:00 +7°C° 0 mm 0 m/s 666 mmHg 92%
    01:00 +7°C° 0 mm 1 m/s 666 mmHg 92%
    02:00 +7°C° 0 mm 1 m/s 666 mmHg 91%
    03:00 +6°C° 0 mm 0 m/s 665 mmHg 89%
    04:00 +6°C° 0 mm 0 m/s 665 mmHg 88%
    05:00 +9°C° 0 mm 1 m/s 666 mmHg 80%
    06:00 +11°C° 0 mm 1 m/s 667 mmHg 72%
    07:00 +13°C° 0 mm 1 m/s 667 mmHg 65%
    08:00 +14°C° 0 mm 1 m/s 667 mmHg 61%
    09:00 +16°C° 0 mm 2 m/s 668 mmHg 57%
    10:00 +17°C° 0 mm 2 m/s 668 mmHg 53%
    11:00 +17°C° 0 mm 2 m/s 668 mmHg 53%
    12:00 +18°C° 0 mm 2 m/s 668 mmHg 52%
    13:00 +18°C° 0 mm 3 m/s 668 mmHg 52%
    14:00 +18°C° 0 mm 3 m/s 668 mmHg 56%
    15:00 +17°C° 0 mm 2 m/s 668 mmHg 59%
    16:00 +17°C° 0 mm 2 m/s 667 mmHg 63%
    17:00 +15°C° 0 mm 2 m/s 667 mmHg 71%
    18:00 +13°C° 0 mm 2 m/s 666 mmHg 80%
    19:00 +12°C° 0 mm 1 m/s 666 mmHg 89%
    20:00 +11°C° 0 mm 1 m/s 666 mmHg 90%
    21:00 +10°C° 0 mm 1 m/s 666 mmHg 91%
    22:00 +9°C° 0 mm 1 m/s 666 mmHg 93%
    23:00 +9°C° 0 mm 1 m/s 665 mmHg 91%

    Amanhã, 23 Maio, Quinta-feira

    Tempo Temperatura Precipitação Vento Pressão Humidade
    00:00 +9°C° 0 mm 1 m/s 665 mmHg 90%
    01:00 +8°C° 0 mm 1 m/s 665 mmHg 88%
    02:00 +8°C° 0 mm 1 m/s 665 mmHg 84%
    03:00 +8°C° 0 mm 1 m/s 665 mmHg 80%
    04:00 +8°C° 0 mm 1 m/s 664 mmHg 77%
    05:00 +10°C° 0 mm 1 m/s 665 mmHg 71%
    06:00 +12°C° 0 mm 1 m/s 665 mmHg 66%
    07:00 +14°C° 0 mm 1 m/s 666 mmHg 60%
    08:00 +15°C° 0 mm 2 m/s 666 mmHg 56%
    09:00 +16°C° 0 mm 2 m/s 667 mmHg 51%
    10:00 +18°C° 0 mm 2 m/s 667 mmHg 46%
    11:00 +18°C° 0 mm 2 m/s 667 mmHg 47%
    12:00 +19°C° 0 mm 2 m/s 667 mmHg 47%
    13:00 +19°C° 0 mm 2 m/s 667 mmHg 47%
    14:00 +18°C° 0.6 mm 2 m/s 666 mmHg 54%
    15:00 +17°C° 0.6 mm 3 m/s 665 mmHg 61%
    16:00 +17°C° 0.6 mm 3 m/s 665 mmHg 68%
    17:00 +15°C° 0.6 mm 2 m/s 665 mmHg 75%
    18:00 +13°C° 0.6 mm 2 m/s 664 mmHg 83%
    19:00 +10°C° 0.6 mm 2 m/s 664 mmHg 91%
    20:00 +10°C° 0.3 mm 2 m/s 664 mmHg 92%
    21:00 +10°C° 0.3 mm 1 m/s 664 mmHg 92%
    22:00 +10°C° 0.3 mm 1 m/s 664 mmHg 93%
    23:00 +10°C° 0 mm 1 m/s 664 mmHg 91%

    Depois de amanhã, 24 Maio, Sexta-feira

    Tempo Temperatura Precipitação Vento Pressão Humidade
    00:00 +10°C° 0 mm 1 m/s 664 mmHg 90%
    01:00 +10°C° 0 mm 1 m/s 663 mmHg 88%
    02:00 +9°C° 0 mm 1 m/s 663 mmHg 88%
    03:00 +9°C° 0 mm 1 m/s 663 mmHg 88%
    04:00 +9°C° 0 mm 1 m/s 663 mmHg 88%
    05:00 +10°C° 0 mm 1 m/s 663 mmHg 85%
    06:00 +11°C° 0 mm 1 m/s 664 mmHg 81%
    07:00 +12°C° 0 mm 1 m/s 664 mmHg 77%
    08:00 +13°C° 0.3 mm 1 m/s 664 mmHg 72%
    09:00 +15°C° 0.3 mm 2 m/s 665 mmHg 68%
    10:00 +16°C° 0.3 mm 2 m/s 665 mmHg 63%
    11:00 +16°C° 1.5 mm 2 m/s 665 mmHg 65%
    12:00 +16°C° 1.5 mm 2 m/s 665 mmHg 68%
    13:00 +16°C° 1.5 mm 3 m/s 664 mmHg 70%
    14:00 +16°C° 1.5 mm 3 m/s 664 mmHg 72%
    15:00 +16°C° 1.5 mm 3 m/s 664 mmHg 75%
    16:00 +14°C° 1.5 mm 3 m/s 664 mmHg 77%
    17:00 +14°C° 0.1 mm 2 m/s 664 mmHg 82%
    18:00 +12°C° 0.1 mm 2 m/s 664 mmHg 87%
    19:00 +11°C° 0.1 mm 1 m/s 663 mmHg 92%
    20:00 +10°C° 0 mm 1 m/s 664 mmHg 93%
    21:00 +10°C° 0 mm 1 m/s 664 mmHg 94%
    22:00 +8°C° 0 mm 0 m/s 664 mmHg 94%
    23:00 +7°C° 0 mm 0 m/s 664 mmHg 93%

    25 Maio, Sábado

    Tempo Temperatura Precipitação Vento Pressão Humidade
    00:00 +7°C° 0 mm 0 m/s 664 mmHg 92%
    01:00 +7°C° 0 mm 0 m/s 664 mmHg 90%
    02:00 +7°C° 0 mm 0 m/s 664 mmHg 89%
    03:00 +6°C° 0 mm 0 m/s 664 mmHg 88%
    04:00 +6°C° 0 mm 0 m/s 664 mmHg 87%
    05:00 +8°C° 0 mm 0 m/s 665 mmHg 81%
    06:00 +10°C° 0 mm 0 m/s 665 mmHg 75%
    07:00 +13°C° 0 mm 1 m/s 666 mmHg 70%
    08:00 +14°C° 0 mm 1 m/s 667 mmHg 65%
    09:00 +16°C° 0 mm 2 m/s 667 mmHg 61%
    10:00 +18°C° 0 mm 2 m/s 668 mmHg 56%
    11:00 +18°C° 0 mm 2 m/s 668 mmHg 55%
    12:00 +19°C° 0 mm 3 m/s 668 mmHg 55%
    13:00 +19°C° 0 mm 3 m/s 668 mmHg 54%
    14:00 +19°C° 0 mm 3 m/s 668 mmHg 57%
    15:00 +19°C° 0 mm 3 m/s 668 mmHg 60%
    16:00 +18°C° 0 mm 3 m/s 668 mmHg 64%
    17:00 +16°C° 0 mm 2 m/s 667 mmHg 73%
    18:00 +14°C° 0 mm 2 m/s 667 mmHg 81%
    19:00 +13°C° 0 mm 1 m/s 666 mmHg 90%
    20:00 +12°C° 0 mm 1 m/s 667 mmHg 91%
    21:00 +11°C° 0 mm 1 m/s 667 mmHg 92%
    22:00 +9°C° 0 mm 0 m/s 667 mmHg 93%
    23:00 +9°C° 0 mm 0 m/s 667 mmHg 92%

    26 Maio, Domingo

    Tempo Temperatura Precipitação Vento Pressão Humidade
    00:00 +9°C° 0 mm 0 m/s 666 mmHg 91%
    01:00 +9°C° 0 mm 0 m/s 666 mmHg 90%
    02:00 +8°C° 0 mm 0 m/s 666 mmHg 89%
    03:00 +8°C° 0 mm 0 m/s 666 mmHg 87%
    04:00 +9°C° 0 mm 1 m/s 666 mmHg 85%
    05:00 +10°C° 0 mm 0 m/s 666 mmHg 76%
    06:00 +12°C° 0 mm 0 m/s 667 mmHg 68%
    07:00 +14°C° 0 mm 0 m/s 668 mmHg 60%
    08:00 +18°C° 0 mm 1 m/s 668 mmHg 54%
    09:00 +19°C° 0 mm 1 m/s 668 mmHg 49%
    10:00 +21°C° 0 mm 1 m/s 669 mmHg 43%
    11:00 +20°C° 0 mm 2 m/s 669 mmHg 43%
    12:00 +20°C° 0 mm 2 m/s 669 mmHg 43%
    13:00 +21°C° 0 mm 2 m/s 669 mmHg 43%
    14:00 +21°C° 0 mm 2 m/s 668 mmHg 46%
    15:00 +20°C° 0 mm 2 m/s 668 mmHg 50%
    16:00 +20°C° 0 mm 2 m/s 668 mmHg 53%
    17:00 +18°C° 0 mm 2 m/s 667 mmHg 63%
    18:00 +16°C° 0 mm 1 m/s 667 mmHg 72%
    19:00 +14°C° 0 mm 1 m/s 666 mmHg 82%
    20:00 +13°C° 0 mm 1 m/s 666 mmHg 83%
    21:00 +13°C° 0 mm 1 m/s 666 mmHg 85%
    22:00 +12°C° 0 mm 1 m/s 666 mmHg 86%
    23:00 +12°C° 0 mm 1 m/s 666 mmHg 86%

    27 Maio, Segunda-feira

    Tempo Temperatura Precipitação Vento Pressão Humidade
    00:00 +12°C° 0 mm 1 m/s 666 mmHg 85%
    01:00 +11°C° 0 mm 0 m/s 666 mmHg 85%
    02:00 +11°C° 0 mm 1 m/s 666 mmHg 84%
    03:00 +11°C° 0 mm 1 m/s 666 mmHg 82%
    04:00 +11°C° 0 mm 1 m/s 666 mmHg 81%
    05:00 +13°C° 0 mm 1 m/s 666 mmHg 74%
    06:00 +15°C° 0 mm 1 m/s 667 mmHg 67%
    07:00 +18°C° 0 mm 1 m/s 668 mmHg 60%
    08:00 +20°C° 0 mm 1 m/s 668 mmHg 54%
    09:00 +20°C° 0 mm 0 m/s 669 mmHg 48%
    10:00 +22°C° 0 mm 0 m/s 669 mmHg 42%
    11:00 +25°C° 0 mm 1 m/s 669 mmHg 41%
    12:00 +26°C° 0 mm 1 m/s 669 mmHg 40%
    13:00 +26°C° 0 mm 1 m/s 669 mmHg 39%
    14:00 +26°C° 0 mm 2 m/s 669 mmHg 43%
    15:00 +25°C° 0 mm 2 m/s 668 mmHg 46%
    16:00 +25°C° 0 mm 3 m/s 668 mmHg 49%
    17:00 +23°C° 0.1 mm 2 m/s 668 mmHg 58%
    18:00 +20°C° 0.1 mm 1 m/s 667 mmHg 67%
    19:00 +18°C° 0.1 mm 1 m/s 667 mmHg 76%
    20:00 +18°C° 0.1 mm 1 m/s 667 mmHg 76%
    21:00 +16°C° 0.1 mm 1 m/s 667 mmHg 77%
    22:00 +16°C° 0.1 mm 2 m/s 667 mmHg 78%
    23:00 +16°C° 0 mm 1 m/s 667 mmHg 78%
    Mostrar mais